When you browse on this site, cookies collect data to enhance your experience and personalize the content and advertising you see.
Visit our Privacy Policy to learn more. By continuing to use the site, you agree to this use of cookies and data.
  • In Austria
  • List of Countries
  • For 7 days
  • Water Temperature
  • Weather Map
  • News
  • Weather Widgets
  • user-avatar
    Login

    Hourly Weather Bialystok

    Today, 9 April, Thursday

    Time Temperature Precipitation Wind Pressure Humidity
    00:00 +9°C° 0 mm 2 mps 754 mmHg 58%
    01:00 +8°C° 0 mm 2 mps 754 mmHg 60%
    02:00 +8°C° 0 mm 2 mps 753 mmHg 61%
    03:00 +7°C° 0 mm 2 mps 753 mmHg 62%
    04:00 +7°C° 0 mm 3 mps 752 mmHg 62%
    05:00 +7°C° 0 mm 3 mps 752 mmHg 63%
    06:00 +8°C° 0 mm 3 mps 751 mmHg 61%
    07:00 +9°C° 0 mm 3 mps 751 mmHg 59%
    08:00 +10°C° 0 mm 4 mps 750 mmHg 57%
    09:00 +12°C° 0 mm 4 mps 750 mmHg 54%
    10:00 +15°C° 0 mm 4 mps 749 mmHg 52%
    11:00 +17°C° 0 mm 5 mps 749 mmHg 49%
    12:00 +17°C° 0 mm 5 mps 749 mmHg 45%
    13:00 +19°C° 0 mm 6 mps 748 mmHg 42%
    14:00 +20°C° 0 mm 7 mps 748 mmHg 39%
    15:00 +17°C° 0.2 mm 7 mps 748 mmHg 45%
    16:00 +16°C° 0.2 mm 7 mps 748 mmHg 51%
    17:00 +15°C° 0.2 mm 7 mps 748 mmHg 57%
    18:00 +13°C° 0 mm 6 mps 748 mmHg 62%
    19:00 +10°C° 0 mm 6 mps 749 mmHg 66%
    20:00 +8°C° 0 mm 5 mps 749 mmHg 71%
    21:00 +7°C° 0 mm 4 mps 749 mmHg 74%
    22:00 +6°C° 0 mm 4 mps 750 mmHg 77%
    23:00 +5°C° 0 mm 4 mps 751 mmHg 81%

    Tomorrow, 10 April, Friday

    Time Temperature Precipitation Wind Pressure Humidity
    00:00 +5°C° 0 mm 3 mps 751 mmHg 83%
    01:00 +4°C° 0 mm 3 mps 751 mmHg 84%
    02:00 +3°C° 0 mm 3 mps 752 mmHg 86%
    03:00 +3°C° 0 mm 3 mps 752 mmHg 87%
    04:00 +2°C° 0 mm 3 mps 752 mmHg 88%
    05:00 +2°C° 0 mm 2 mps 753 mmHg 90%
    06:00 +3°C° 0 mm 2 mps 753 mmHg 78%
    07:00 +4°C° 0 mm 2 mps 753 mmHg 67%
    08:00 +5°C° 0 mm 2 mps 754 mmHg 55%
    09:00 +7°C° 0 mm 3 mps 754 mmHg 49%
    10:00 +8°C° 0 mm 3 mps 754 mmHg 42%
    11:00 +9°C° 0 mm 3 mps 754 mmHg 35%
    12:00 +10°C° 0 mm 3 mps 754 mmHg 35%
    13:00 +11°C° 0 mm 3 mps 754 mmHg 35%
    14:00 +11°C° 0 mm 4 mps 754 mmHg 35%
    15:00 +11°C° 0 mm 4 mps 753 mmHg 39%
    16:00 +11°C° 0 mm 4 mps 753 mmHg 42%
    17:00 +11°C° 0 mm 4 mps 753 mmHg 46%
    18:00 +9°C° 0 mm 3 mps 753 mmHg 50%
    19:00 +8°C° 0 mm 3 mps 753 mmHg 54%
    20:00 +7°C° 0 mm 2 mps 753 mmHg 58%
    21:00 +6°C° 0 mm 2 mps 753 mmHg 58%
    22:00 +5°C° 0 mm 2 mps 753 mmHg 58%
    23:00 +4°C° 0 mm 2 mps 753 mmHg 58%

    Day after tomorrow, 11 April, Saturday

    Time Temperature Precipitation Wind Pressure Humidity
    00:00 +3°C° 0 mm 2 mps 754 mmHg 60%
    01:00 +3°C° 0 mm 2 mps 754 mmHg 62%
    02:00 +2°C° 0 mm 2 mps 754 mmHg 64%
    03:00 +2°C° 0 mm 2 mps 754 mmHg 69%
    04:00 +1°C° 0 mm 2 mps 754 mmHg 74%
    05:00 +1°C° 0 mm 2 mps 755 mmHg 78%
    06:00 +2°C° 0 mm 2 mps 755 mmHg 71%
    07:00 +3°C° 0 mm 2 mps 755 mmHg 65%
    08:00 +4°C° 0 mm 2 mps 756 mmHg 58%
    09:00 +6°C° 0 mm 2 mps 756 mmHg 51%
    10:00 +7°C° 0 mm 2 mps 756 mmHg 43%
    11:00 +9°C° 0 mm 2 mps 757 mmHg 36%
    12:00 +9°C° 0 mm 2 mps 757 mmHg 34%
    13:00 +10°C° 0 mm 2 mps 757 mmHg 31%
    14:00 +12°C° 0 mm 2 mps 757 mmHg 29%
    15:00 +12°C° 0 mm 2 mps 756 mmHg 30%
    16:00 +12°C° 0 mm 2 mps 756 mmHg 30%
    17:00 +12°C° 0 mm 2 mps 756 mmHg 31%
    18:00 +10°C° 0 mm 1 mps 756 mmHg 36%
    19:00 +9°C° 0 mm 1 mps 756 mmHg 40%
    20:00 +7°C° 0 mm 1 mps 756 mmHg 45%
    21:00 +7°C° 0 mm 1 mps 756 mmHg 46%
    22:00 +6°C° 0 mm 1 mps 756 mmHg 47%
    23:00 +6°C° 0 mm 1 mps 757 mmHg 48%

    12 April, Sunday

    Time Temperature Precipitation Wind Pressure Humidity
    00:00 +5°C° 0 mm 2 mps 756 mmHg 49%
    01:00 +4°C° 0 mm 2 mps 756 mmHg 50%
    02:00 +4°C° 0 mm 2 mps 756 mmHg 52%
    03:00 +3°C° 0 mm 2 mps 756 mmHg 53%
    04:00 +2°C° 0 mm 3 mps 755 mmHg 53%
    05:00 +1°C° 0 mm 3 mps 755 mmHg 54%
    06:00 +3°C° 0 mm 3 mps 755 mmHg 53%
    07:00 +4°C° 0 mm 4 mps 755 mmHg 51%
    08:00 +5°C° 0 mm 4 mps 754 mmHg 49%
    09:00 +6°C° 0 mm 5 mps 754 mmHg 47%
    10:00 +8°C° 0 mm 5 mps 754 mmHg 46%
    11:00 +9°C° 0 mm 5 mps 753 mmHg 44%
    12:00 +10°C° 0 mm 5 mps 753 mmHg 44%
    13:00 +12°C° 0 mm 5 mps 752 mmHg 43%
    14:00 +13°C° 0 mm 5 mps 752 mmHg 43%
    15:00 +13°C° 0 mm 5 mps 751 mmHg 44%
    16:00 +13°C° 0 mm 5 mps 750 mmHg 45%
    17:00 +13°C° 0 mm 5 mps 750 mmHg 46%
    18:00 +12°C° 0 mm 4 mps 749 mmHg 50%
    19:00 +10°C° 0 mm 4 mps 749 mmHg 55%
    20:00 +9°C° 0 mm 3 mps 748 mmHg 59%
    21:00 +8°C° 0 mm 3 mps 748 mmHg 61%
    22:00 +8°C° 0 mm 3 mps 748 mmHg 62%
    23:00 +7°C° 0 mm 3 mps 747 mmHg 63%

    13 April, Monday

    Time Temperature Precipitation Wind Pressure Humidity
    00:00 +7°C° 0 mm 3 mps 747 mmHg 64%
    01:00 +7°C° 0 mm 3 mps 746 mmHg 66%
    02:00 +5°C° 0 mm 3 mps 746 mmHg 67%
    03:00 +5°C° 0 mm 3 mps 745 mmHg 69%
    04:00 +5°C° 0 mm 3 mps 745 mmHg 72%
    05:00 +4°C° 0 mm 3 mps 744 mmHg 74%
    06:00 +7°C° 0 mm 3 mps 744 mmHg 73%
    07:00 +8°C° 0 mm 4 mps 744 mmHg 71%
    08:00 +10°C° 0 mm 4 mps 743 mmHg 69%
    09:00 +12°C° 0 mm 5 mps 743 mmHg 65%
    10:00 +14°C° 0 mm 5 mps 742 mmHg 61%
    11:00 +16°C° 0 mm 6 mps 741 mmHg 57%
    12:00 +17°C° 0.5 mm 6 mps 741 mmHg 56%
    13:00 +17°C° 0.5 mm 7 mps 740 mmHg 54%
    14:00 +17°C° 0.5 mm 7 mps 740 mmHg 52%
    15:00 +16°C° 0.6 mm 7 mps 739 mmHg 57%
    16:00 +15°C° 0.6 mm 7 mps 739 mmHg 61%
    17:00 +14°C° 0.6 mm 7 mps 739 mmHg 66%
    18:00 +10°C° 1.3 mm 8 mps 739 mmHg 72%
    19:00 +6°C° 1.3 mm 8 mps 740 mmHg 79%
    20:00 +4°C° 1.3 mm 8 mps 740 mmHg 85%
    21:00 +1°C° 0.1 mm 8 mps 742 mmHg 82%
    22:00 -1°C° 0.1 mm 8 mps 743 mmHg 79%
    23:00 -2°C° 0.1 mm 8 mps 744 mmHg 76%

    14 April, Tuesday

    Time Temperature Precipitation Wind Pressure Humidity
    00:00 -4°C° 0 mm 8 mps 745 mmHg 73%
    01:00 -5°C° 0 mm 8 mps 746 mmHg 70%
    02:00 -4°C° 0 mm 7 mps 746 mmHg 68%
    03:00 -6°C° 0 mm 7 mps 747 mmHg 68%
    04:00 -6°C° 0 mm 7 mps 748 mmHg 68%
    05:00 -6°C° 0 mm 7 mps 748 mmHg 68%
    06:00 -6°C° 0 mm 7 mps 749 mmHg 62%
    07:00 -5°C° 0 mm 8 mps 750 mmHg 55%
    08:00 -4°C° 0 mm 8 mps 751 mmHg 49%
    09:00 -2°C° 0 mm 8 mps 751 mmHg 45%
    10:00 -1°C° 0 mm 8 mps 751 mmHg 41%
    11:00 0°C° 0 mm 8 mps 752 mmHg 37%
    12:00 +1°C° 0 mm 8 mps 752 mmHg 40%
    13:00 +2°C° 0 mm 8 mps 752 mmHg 42%
    14:00 +3°C° 0 mm 7 mps 752 mmHg 45%
    15:00 +3°C° 0 mm 7 mps 752 mmHg 45%
    16:00 +3°C° 0 mm 7 mps 752 mmHg 45%
    17:00 +3°C° 0 mm 7 mps 752 mmHg 45%
    18:00 +2°C° 0 mm 6 mps 752 mmHg 50%
    19:00 +1°C° 0 mm 5 mps 752 mmHg 55%
    20:00 -1°C° 0 mm 4 mps 753 mmHg 60%
    21:00 -1°C° 0 mm 4 mps 753 mmHg 63%
    22:00 -1°C° 0 mm 3 mps 753 mmHg 67%
    23:00 -2°C° 0 mm 3 mps 753 mmHg 71%
    Show more